TimeCST,TemperatureF,Dew PointF,Humidity,Sea Level PressureIn,VisibilityMPH,Wind Direction,Wind SpeedMPH,Gust SpeedMPH,PrecipitationIn,Events,Conditions,WindDirDegrees,DateUTC
12:54 AM,28.0,24.1,85,30.26,10.0,SSE,10.4,-,N/A,,Overcast,150,2012-11-04 05:54:00
1:54 AM,28.0,24.1,85,30.26,10.0,SSE,8.1,-,N/A,,Overcast,150,2012-11-04 06:54:00
1:54 AM,28.0,24.1,85,30.24,10.0,SSE,9.2,-,N/A,,Overcast,150,2012-11-04 07:54:00
2:54 AM,28.0,25.0,88,30.23,10.0,SSE,11.5,-,N/A,,Overcast,160,2012-11-04 08:54:00
3:54 AM,28.0,25.0,88,30.21,10.0,SE,9.2,-,N/A,,Overcast,130,2012-11-04 09:54:00
4:54 AM,28.9,25.0,85,30.19,8.0,SE,8.1,-,N/A,,Overcast,140,2012-11-04 10:54:00
5:54 AM,28.4,26.6,93,30.11,8.0,SE,8.1,-,N/A,,Overcast,130,2012-11-04 11:54:00
6:54 AM,28.9,25.0,85,30.17,9.0,SE,12.7,-,N/A,,Overcast,130,2012-11-04 12:54:00
7:07 AM,28.4,24.8,86,30.10,9.0,SE,9.2,-,N/A,,Overcast,140,2012-11-04 13:07:00
7:54 AM,28.9,26.1,89,30.17,7.0,SE,9.2,-,N/A,,Overcast,140,2012-11-04 13:54:00
8:54 AM,30.0,26.1,85,30.15,7.0,SE,11.5,-,N/A,,Overcast,130,2012-11-04 14:54:00
9:54 AM,30.9,27.0,85,30.14,6.0,SE,9.2,-,0.00,,Overcast,140,2012-11-04 15:54:00
10:44 AM,30.2,28.4,93,30.08,3.0,SSE,9.2,-,0.01,Snow,Light Snow,150,2012-11-04 16:44:00
10:54 AM,30.9,28.0,89,30.15,3.0,SSE,10.4,-,0.01,Snow,Light Snow,150,2012-11-04 16:54:00
11:42 AM,30.2,28.4,93,30.09,2.5,SE,5.8,-,0.01,Snow,Light Snow,140,2012-11-04 17:42:00
11:54 AM,32.0,30.0,92,30.16,1.5,SE,6.9,-,0.02,Snow,Light Snow,140,2012-11-04 17:54:00
12:15 PM,32.0,30.2,93,30.09,2.0,SE,5.8,-,0.01,Snow,Light Snow,130,2012-11-04 18:15:00
12:20 PM,32.0,30.2,93,30.09,1.8,SE,4.6,-,0.01,Snow,Light Snow,140,2012-11-04 18:20:00
12:39 PM,32.0,30.2,93,30.08,0.8,ESE,6.9,-,0.02,Snow,Light Snow,120,2012-11-04 18:39:00
12:54 PM,32.0,30.9,96,30.15,1.2,SE,5.8,-,0.03,Snow,Light Snow,130,2012-11-04 18:54:00
1:08 PM,32.0,30.2,93,30.08,2.0,ESE,5.8,-,0.00,Snow,Light Snow,120,2012-11-04 19:08:00
1:54 PM,32.0,30.9,96,30.15,2.0,East,6.9,-,0.01,,Overcast,100,2012-11-04 19:54:00
2:21 PM,32.0,30.2,93,30.08,3.0,ESE,8.1,-,N/A,,Overcast,110,2012-11-04 20:21:00
2:54 PM,32.0,30.9,96,30.16,4.0,ESE,6.9,-,N/A,,Overcast,110,2012-11-04 20:54:00
3:54 PM,33.1,30.9,92,30.19,5.0,ESE,3.5,-,N/A,,Overcast,110,2012-11-04 21:54:00
4:54 PM,33.1,30.9,92,30.21,3.0,Calm,Calm,-,N/A,,Overcast,0,2012-11-04 22:54:00
5:04 PM,33.8,30.2,87,30.14,2.0,Calm,Calm,-,N/A,,Overcast,0,2012-11-04 23:04:00
5:13 PM,32.0,30.2,93,30.14,1.5,Calm,Calm,-,N/A,,Overcast,0,2012-11-04 23:13:00
5:50 PM,32.0,32.0,100,30.15,2.0,Calm,Calm,-,N/A,,Overcast,0,2012-11-04 23:50:00
5:54 PM,32.0,32.0,100,30.22,2.0,Calm,Calm,-,N/A,,Overcast,0,2012-11-04 23:54:00
6:54 PM,33.1,30.9,92,30.24,2.0,Calm,Calm,-,N/A,,Overcast,0,2012-11-05 00:54:00
7:03 PM,32.0,32.0,100,30.17,1.8,Calm,Calm,-,N/A,,Overcast,0,2012-11-05 01:03:00
7:54 PM,32.0,32.0,100,30.25,1.8,Calm,Calm,-,N/A,,Overcast,0,2012-11-05 01:54:00
8:18 PM,32.0,32.0,100,30.18,0.8,Calm,Calm,-,N/A,,Overcast,0,2012-11-05 02:18:00
8:54 PM,32.0,32.0,100,30.25,0.5,Calm,Calm,-,N/A,Fog,Fog,0,2012-11-05 02:54:00
9:23 PM,32.0,32.0,100,30.18,0.2,Calm,Calm,-,N/A,Fog,Fog,0,2012-11-05 03:23:00
9:54 PM,33.1,32.0,96,30.27,0.2,WSW,3.5,-,N/A,Fog,Fog,240,2012-11-05 03:54:00
10:02 PM,33.8,32.0,93,30.20,0.5,WSW,5.8,-,N/A,Fog,Fog,240,2012-11-05 04:02:00
10:27 PM,33.8,33.8,100,30.19,1.2,West,6.9,-,N/A,,Overcast,270,2012-11-05 04:27:00
10:46 PM,33.8,33.8,100,30.19,1.8,WNW,6.9,-,N/A,,Overcast,290,2012-11-05 04:46:00
10:51 PM,33.8,33.8,100,30.19,2.0,WNW,5.8,-,N/A,,Overcast,290,2012-11-05 04:51:00
10:54 PM,33.1,33.1,100,30.26,2.0,WNW,5.8,-,N/A,,Overcast,290,2012-11-05 04:54:00